Regional Weather Roundup
Issued by NWS

Home | Current Version | Previous Version | Graphics & Text | Print | Product List | Glossary On
Versions: 1 2 3 4 5 6 7 8 9 10 11 12 13 14 15 16 17 18 19 20 21 22 23 24 25 26 27 28 29 30 31 32 33 34 35 36 37 38 39 40 41 42 43 44 45 46 47 48 49 50
000
ASUS43 KOAX 281802
RWRNE

WEATHER ROUNDUP FOR NEBRASKA
NATIONAL WEATHER SERVICE OMAHA NE
100 PM CDT FRI AUG 28 2015

NOTES: SATELLITE DATA IS BEING USED TO AUGMENT CLOUD COVER ABOVE
       12000 FEET.
       "FAIR" INDICATES FEW OR NO CLOUDS BELOW 12,000 FEET WITH NO
       SIGNIFICANT WEATHER AND/OR OBSTRUCTIONS TO VISIBILITY.

  * THESE STATIONS DO NOT REPORT WEATHER SUCH AS RAIN...SNOW OR FOG.

NEZ001>004-019>022-054>056-281900-
NEBRASKA PANHANDLE

CITY           SKY/WX    TMP DP  RH WIND       PRES   REMARKS
SCOTTSBLUFF    MOSUNNY   81  51  35 W12       30.13F
6HR MIN TEMP:  57; 6HR MAX TEMP:  81;

ALLIANCE       SUNNY     84  52  33 N13G22    30.10S
6HR MIN TEMP:  50; 6HR MAX TEMP:  85;

CHADRON        SUNNY     83  50  31 VRB7      30.08S
6HR MIN TEMP:  56; 6HR MAX TEMP:  83;

SIDNEY         SUNNY     84  50  30 N17G24    30.15S
6HR MIN TEMP:  60; 6HR MAX TEMP:  85;

$$

NEZ057>060-069>072-079>082-281900-
SOUTHWEST NEBRASKA

CITY           SKY/WX    TMP DP  RH WIND       PRES   REMARKS
NORTH PLATTE   PTSUNNY   77  62  59 N12G21    30.03S
6HR MIN TEMP:  61; 6HR MAX TEMP:  78;

IMPERIAL       SUNNY     86  52  30 NW16      30.05S
6HR MIN TEMP:  59; 6HR MAX TEMP:  86;

MCCOOK         SUNNY     85  60  42 N18       30.00F
6HR MIN TEMP:  63; 6HR MAX TEMP:  85;

$$

NEZ005>010-023>029-035>040-094-281900-
NORTH CENTRAL NEBRASKA

CITY           SKY/WX    TMP DP  RH WIND       PRES   REMARKS
VALENTINE      CLOUDY    76  62  62 NE9       30.02F
AINSWORTH      CLOUDY    71  64  79 N9        30.03S
BROKEN BOW     CLOUDY    72  64  76 N9        30.00R
6HR MIN TEMP:  68; 6HR MAX TEMP:  72;

O`NEILL        CLOUDY    69  65  86 N12       29.98S
ORD            CLOUDY    71  63  75 N9        29.97R
6HR MIN TEMP:  67; 6HR MAX TEMP:  71;

$$

NEZ041-046>049-061>064-073>077-083>087-281900-
SOUTH CENTRAL NEBRASKA

CITY           SKY/WX    TMP DP  RH WIND       PRES   REMARKS
GRAND ISLAND   CLOUDY    75  62  64 N18       29.94R
6HR MIN TEMP:  66; 6HR MAX TEMP:  78;

AURORA         CLOUDY    76  67  75 N10       29.92R
HASTINGS       CLOUDY    77  65  66 NW12      29.94R
6HR MIN TEMP:  67; 6HR MAX TEMP:  77; 6HR PCP: TRACE;

KEARNEY *      CLOUDY    75  63  64 N10       29.96S
YORK           CLOUDY    73  68  83 N7        29.91R
$$

NEZ011>018-030>034-042>045-281900-
NORTHEAST NEBRASKA

CITY           SKY/WX    TMP DP  RH WIND       PRES   REMARKS
NORFOLK        CLOUDY    70  64  81 N16       29.90R
6HR MIN TEMP:  67; 6HR MAX TEMP:  71; 6HR PCP: TRACE;

ALBION         CLOUDY    69  62  79 NW10G16   29.94R
BLAIR          PTSUNNY   75  69  84 SW6       29.83F
COLUMBUS *     CLOUDY    72  61  68 N7        29.89S
FREMONT        CLOUDY    74  67  78 NW13      29.85R
TEKAMAH        CLOUDY    76  70  82 CALM      29.82F
6HR MIN TEMP:  69; 6HR MAX TEMP:  76; 6HR PCP:  0.01;

$$

NEZ050>053-065>068-078-088>093-281900-
SOUTHEAST NEBRASKA

CITY           SKY/WX    TMP DP  RH WIND       PRES   REMARKS
LINCOLN        CLOUDY    77  68  73 W6        29.87S
6HR MIN TEMP:  73; 6HR MAX TEMP:  80;

OMAHA EPPLEY   CLOUDY    75  70  84 S9        29.84F FOG
6HR MIN TEMP:  69; 6HR MAX TEMP:  75; 6HR PCP: TRACE;

BEATRICE       CLOUDY    74  67  78 NW8       29.88S
FALLS CITY     MOSUNNY   82  69  64 S18       29.86F
6HR MIN TEMP:  67; 6HR MAX TEMP:  83;

NEBRASKA CITY  CLOUDY    76  67  71 SW7       29.86F
PLATTSMOUTH    CLOUDY    75  68  79 SW8       29.86S
$$

NEZ044-045-051>053-067-281900-
OMAHA AREA

CITY           SKY/WX    TMP DP  RH WIND       PRES   REMARKS
OMAHA EPPLEY   CLOUDY    75  70  84 S9        29.84F FOG
6HR MIN TEMP:  69; 6HR MAX TEMP:  75; 6HR PCP: TRACE;

BLAIR          PTSUNNY   75  69  84 SW6       29.83F
FREMONT        CLOUDY    74  67  78 NW13      29.85R
OFFUTT AFB     CLOUDY    75  70  83 W8        29.84S
PLATTSMOUTH    CLOUDY    75  68  79 SW8       29.86S
WAHOO          CLOUDY    75  69  81 W10       29.85S
$$



USA.gov is the U.S. government's official web portal to all federal, state and local government web resources and services.